YMIA

Details ICAO YMIA (MQL)
Name Mildura
Region Australia
Timezone Australia/Melbourne (UTC+10.0)
Plans Departing 20
Arriving 39
Stats Elevation 166 ft / 51 m (AMSL)
Location -34.229489° 142.086345°
Runways 2
Magnetic Variation 9.247° E
Sunrise 2018-05-23 21:24:58 UTC / 2018-05-24 07:24:58 Local
Sunset 2018-05-24 07:34:49 UTC / 2018-05-24 17:34:49 Local
Advertisement - Login to hide

Runways

ID Width Length Bearing (true) Bearing (mag) Surface Threshold Offset Overrun Length
09 148 ft / 45 m 5,990 ft / 1,826 m 101.71° 92.46° Asphalt 0 ft / 0 m 0 ft / 0 m
18 98 ft / 30 m 3,739 ft / 1,140 m 185.00° 175.75° Asphalt 0 ft / 0 m 0 ft / 0 m
27 148 ft / 45 m 5,990 ft / 1,826 m 281.69° 272.44° Asphalt 0 ft / 0 m 0 ft / 0 m
36 98 ft / 30 m 3,739 ft / 1,140 m 5.00° 355.75° Asphalt 0 ft / 0 m 0 ft / 0 m

Map

Weather


0- 5 10 15 20 25 30 35+ Temperature / ° C

Clouds and Precipitation
Forecast for 2018-05-23 18:00 UTC. Updated 15 minutes ago

Ground ~20,000 ft ~40,000 ft Winds

METAR

YMIA 231700Z AUTO 21004KT 9999 // NCD 06/05 Q1027

TAF

Not found

Frequencies

Unicom 119.60 MHz ACTIVATE LIGHTS ONLY MULT
Tower 122.10 MHz MELBOURNE CNTR
Unicom 118.80 MHz MILDURA MULT
Warning: Do not use this data for real-world aviation or navigation. No guarantee of current accuracy is given.